Regional Weather Roundup
Issued by NWS

Home | Current Version | Previous Version | Text Only | Print | Product List | Glossary On
Versions: 1 2 3 4 5 6 7 8 9 10 11 12 13 14 15 16 17 18 19 20 21 22 23 24 25 26 27 28 29 30 31 32 33 34 35 36 37 38 39 40 41 42 43 44 45 46 47 48 49 50
000
ASPQ40 PGUM 231512
RWRPQ
WEATHER ROUNDUP FOR THE MARIANAS AND MICRONESIA
NATIONAL WEATHER SERVICE TIYAN GU
100 AM CHST TUE JAN 24 2017

GUZ001>004-231600-
MARIANA ISLANDS-

CITY           SKY/WX    TMP DP  RH WIND       PRES   REMARKS
GUAM AIRPORT   MOCLDY    79  75  89 NE15      29.98S
ANDERSEN AFB   MOCLDY    77  73  88 NE18      29.99S
ROTA AIRPORT   NOT AVBL
TINIAN AP      NOT AVBL
SAIPAN AP      CLOUDY    77  70  78 NE14      29.99S

$$

PMZ161-231600-
REPUBLIC OF PALAU-

CITY           SKY/WX    TMP DP  RH WIND       PRES   REMARKS
KOROR AP       MOCLDY    81  77  89 NE9       29.88F
KOROR WSO      CLOUDY    81  77  89 NE6       29.89S

$$

PMZ171>174-231600-
FEDERATED STATES OF MICRONESIA-

CITY           SKY/WX    TMP DP  RH WIND       PRES   REMARKS
YAP AIRPORT    MOCLDY    79  75  89 NE9       29.87F
CHUUK AP       NOT AVBL
POHNPEI AP     NOT AVBL
POHNPEI WSO    CLOUDY    82  75  78 E12       29.83F
KOSRAE AP      NOT AVBL

$$

PMZ181-231600-
REPUBLIC OF THE MARSHALL ISLANDS-

CITY           SKY/WX    TMP DP  RH WIND       PRES   REMARKS
KWAJALEIN AP   MOCLDY    82  77  83 E21G29    29.79F HX  91
MAJURO AP      NOT AVBL
MAJURO WSO     CLOUDY    82  77  83 NE20      29.77F HX  91

$$




USA.gov is the U.S. government's official web portal to all federal, state and local government web resources and services.